Back to catalog

PHI-1

AliveScienceSSO
NORAD 66775·PAYLOAD·🇦🇪 UAE

Launched Nov 28, 2025 from Vandenberg Space Force Base

Loading…

Next Passes (next 24 hours)

TLE

FreshSource: Space-Track

Epoch: Sep 14, 2026, 10:57 UTC

1 66775U 25276DP  26257.45685506  .00004790  00000-0  21137-3 0  9991
2 66775  97.4056 329.8781 0001841 146.0288 214.1066 15.22237599 44020

Track PHI-1 in real time with AllMySat

Download on the App Store